Mountain Home, Arkansas, United States (72653)
Lat: 36.34N, Lon: 92.39W
Wx Zone: ARZ005
Local Info
Past Weather Observations for Monday, February 8, 2016

NOTE: This archive is for the closest National Weather Service station to Mountain Home. Information may differ from the station used for current weather conditions.

Click here for Long-term Archive

Time Weather Temperature Dewpoint Humidity Pressure Winds Precip Visibility
23:53
Clear
30°F / -1°C 14°F / -10°C 51% 30.01 in
(1016 mb)
NW 8.1 mph
(NW 13 kph)
- 10SM
22:53
Partly Cloudy
30°F / -1°C 14°F / -10°C 51% 30.01 in
(1016 mb)
NW 8.1 mph
(NW 13 kph)
- 10SM
21:53
Mostly Cloudy
32°F / 0°C 16°F / -9°C 51% 30.01 in
(1016 mb)
NW 9.2 mph
(NW 15 kph)
- 10SM
20:53
Overcast
34°F / 1°C 16°F / -9°C 48% 30.04 in
(1017 mb)
NW 10.4 mph
(NW 17 kph)
- 10SM
19:53
Overcast
34°F / 1°C 16°F / -9°C 48% 30.01 in
(1016 mb)
NW 15 mph
(NW 24 kph)
- 10SM
18:53
Overcast
34°F / 1°C 16°F / -9°C 48% 30.04 in
(1017 mb)
NW 9.2 mph
(NW 15 kph)
- 10SM
17:53
Overcast
34°F / 1°C 16°F / -9°C 48% 30.04 in
(1017 mb)
NW 12.7 mph
(NW 20 kph)
- 10SM
16:53
Overcast
36°F / 2°C 16°F / -9°C 44% 30.04 in
(1017 mb)
NW 10.4 mph
(NW 17 kph)
- 10SM
15:53
Overcast
36°F / 2°C 16°F / -9°C 44% 30.01 in
(1016 mb)
NW 9.2 mph
(NW 15 kph)
- 10SM
14:53
Overcast
36°F / 2°C 16°F / -9°C 44% 30.01 in
(1016 mb)
NNW 11.5 mph
(NNW 19 kph)
- 10SM
13:53
Overcast
36°F / 2°C 18°F / -8°C 48% 29.98 in
(1015 mb)
NNW 12.7 mph
(NNW 20 kph)
- 10SM
12:53
Overcast
37°F / 3°C 16°F / -9°C 41% 29.98 in
(1015 mb)
NW 16.1 mph
(NW 26 kph)
- 10SM
11:53
Overcast
39°F / 4°C 19°F / -7°C 45% 29.98 in
(1015 mb)
NW 9.2 mph
(NW 15 kph)
- 10SM
10:53
Overcast
37°F / 3°C 18°F / -8°C 45% 29.98 in
(1015 mb)
NW 11.5 mph
(NW 19 kph)
- 10SM
09:53
Overcast
39°F / 4°C 18°F / -8°C 42% 29.98 in
(1015 mb)
NW 12.7 mph
(NW 20 kph)
- 10SM
08:53
Overcast
37°F / 3°C 16°F / -9°C 41% 29.98 in
(1015 mb)
NW 9.2 mph
(NW 15 kph)
- 10SM
07:53
Overcast
37°F / 3°C 19°F / -7°C 48% 29.95 in
(1014 mb)
NW 11.5 mph
(NW 19 kph)
- 10SM
06:53
Partly Cloudy
36°F / 2°C 19°F / -7°C 52% 29.95 in
(1014 mb)
Variable 6.9 mph
(Variable 11 kph)
- 10SM
05:53
Partly Cloudy
37°F / 3°C 19°F / -7°C 48% 29.95 in
(1014 mb)
NNW 12.7 mph
(NNW 20 kph)
- 10SM
04:53
Clear
37°F / 3°C 21°F / -6°C 52% 29.92 in
(1013 mb)
Variable 6.9 mph
(Variable 11 kph)
- 10SM
03:53
Clear
39°F / 4°C 21°F / -6°C 48% 29.95 in
(1014 mb)
Variable 6.9 mph
(Variable 11 kph)
- 10SM
02:53
Partly Cloudy
39°F / 4°C 21°F / -6°C 48% 29.95 in
(1014 mb)
NW 8.1 mph
(NW 13 kph)
- 10SM
01:53
Clear
39°F / 4°C 21°F / -6°C 48% 29.98 in
(1015 mb)
NW 9.2 mph
(NW 15 kph)
- 10SM
00:53
Partly Cloudy
41°F / 5°C 19°F / -7°C 42% 29.98 in
(1015 mb)
Variable 4.6 mph
(Variable 7 kph)
- 10SM
Time Weather Temperature Dewpoint Humidity Pressure Winds Precip Visibility


Weather for websites

WeatherForYou.com, LLC is not responsible for any damages or problems caused by this service. Current weather conditions are obtained from the closest station including government and personal stations which may have varying degrees of accuracy. Weather forecasts are derived from the NOAA NDFD. Like all things, this site belongs to Jesus Christ... He just trusts us to maintain it. If you have any questions or comments email webmaster@weatherforyou.com

Copyright © 2016, WeatherForYou.com LLC. All rights reserved.